Date,TemperatureHighF,TemperatureAvgF,TemperatureLowF,DewpointHighF,DewpointAvgF,DewpointLowF,HumidityHigh,HumidityAvg,HumidityLow,PressureMaxIn,PressureMinIn,WindSpeedMaxMPH,WindSpeedAvgMPH,GustSpeedMaxMPH,PrecipitationSumIn
2012-1-3,38.2,32.0,25.4,14.9,11.7,10.3,64,43,32,30.54,30.42,10,2,18,0.00
2012-1-4,50.4,35.7,20.0,18.7,14.7,8.5,82,48,19,30.57,30.28,11,2,11,0.00
2012-1-5,62.5,47.7,36.3,35.0,27.4,17.7,67,46,28,30.28,30.15,10,2,12,0.00
2012-1-6,66.3,51.4,36.5,38.0,33.3,27.5,80,52,30,30.21,30.08,13,2,13,0.00
2012-1-7,68.2,57.9,51.7,56.5,49.5,34.5,90,74,54,30.16,30.05,9,2,14,0.00
2012-1-8,64.6,55.0,44.3,58.0,52.3,43.5,97,91,78,30.25,30.13,9,2,12,0.02
2012-1-9,68.3,58.3,50.5,60.5,55.9,49.7,98,92,76,30.23,30.09,5,1,7,0.01
2012-1-10,67.2,60.4,54.4,60.1,57.2,53.6,97,90,75,30.10,29.91,3,0,7,0.00
2012-1-11,65.9,57.3,51.0,60.5,51.9,43.0,97,83,57,29.91,29.53,18,5,18,0.09
2012-1-12,62.9,52.5,36.1,51.3,43.2,18.8,85,71,49,29.97,29.62,15,5,19,0.00
2012-1-13,40.9,33.9,28.7,21.8,20.4,18.3,73,58,46,30.32,29.97,12,3,15,0.00
2012-1-14,51.3,39.0,28.4,24.6,21.5,18.8,72,51,30,30.43,30.26,8,2,15,0.00
2012-1-15,56.0,43.1,30.6,29.1,26.6,23.4,85,55,28,30.60,30.25,8,2,9,0.00
2012-1-16,57.3,44.1,28.8,47.0,33.2,25.6,90,68,39,30.67,30.38,6,1,12,0.00
2012-1-17,52.3,50.7,49.9,48.1,47.6,46.9,93,89,83,30.38,30.31,7,3,9,0.01
2012-1-20,59.6,52.4,42.8,53.3,47.2,37.7,96,83,60,30.22,30.03,11,3,11,0.24
2012-1-21,64.9,59.1,55.4,60.9,57.6,53.3,98,95,87,30.08,29.91,12,5,16,0.59
2012-1-22,55.5,49.3,41.9,55.0,48.7,41.4,98,98,97,30.30,30.08,7,2,10,0.02
2012-1-23,57.1,48.8,42.0,56.8,48.4,41.4,99,99,98,30.29,30.05,4,1,7,0.11
2012-1-24,67.2,53.0,41.0,50.5,45.7,39.4,99,80,39,30.29,30.09,5,1,5,0.05
2012-1-25,66.2,49.8,32.4,53.3,44.6,31.6,97,84,58,30.37,30.19,4,0,5,0.04
2012-1-26,71.0,61.5,50.5,63.3,58.6,48.8,97,90,75,30.19,29.73,11,4,17,0.03
2012-1-27,64.3,56.1,40.4,61.9,48.6,37.7,92,77,51,30.09,29.67,12,4,15,0.01
2012-1-28,64.6,48.7,33.7,43.6,38.7,32.5,96,71,46,30.31,30.09,9,3,13,0.00
2012-1-29,57.1,42.3,29.5,30.2,21.7,12.5,90,50,17,30.50,30.31,10,2,12,0.11
2012-1-30,62.9,44.3,28.0,31.8,24.7,18.7,88,52,19,30.57,30.44,6,1,9,0.00
2012-1-31,64.4,49.8,30.8,43.6,36.4,26.8,85,63,37,30.50,30.36,6,1,10,0.00
2012-2-1,70.2,56.5,42.6,55.3,49.2,33.3,97,78,54,30.34,30.12,17,2,17,0.06
2012-2-2,70.8,61.9,56.9,58.8,56.2,51.8,97,83,51,30.19,30.07,9,3,10,0.01
2012-2-21,63.0,55.4,40.9,48.3,46.4,39.0,93,73,56,30.36,30.10,12,4,14,0.01
2012-2-22,69.7,59.5,49.4,56.8,51.6,48.2,96,77,50,30.10,29.63,14,5,16,0.00
2012-2-23,77.5,69.4,61.5,64.5,60.7,56.7,95,76,50,29.71,29.59,23,10,30,0.00
2012-2-24,71.0,61.6,46.9,66.4,55.0,30.8,96,80,49,30.07,29.62,12,5,17,1.83
2012-2-25,55.3,45.4,36.5,31.8,27.8,23.5,74,52,30,30.39,30.07,12,4,21,0.00
2012-2-26,60.5,45.9,33.4,41.0,31.4,27.5,86,61,30,30.56,30.39,7,1,10,0.00
2012-2-27,61.5,51.2,46.6,54.9,48.7,40.7,97,91,76,30.51,30.36,4,0,5,0.05
2012-2-28,66.5,54.8,42.3,56.8,50.9,41.5,98,88,66,30.44,30.27,7,0,9,0.01
2012-2-29,70.4,63.6,56.8,64.0,60.6,55.4,96,90,79,30.27,29.96,13,4,17,0.07
2012-3-1,76.5,67.7,60.5,65.6,62.8,59.4,97,85,62,29.94,29.81,10,4,11,0.17
2012-3-2,77.6,69.7,64.0,64.9,62.8,59.1,96,80,57,29.91,29.65,22,7,23,0.00
2012-3-3,71.0,59.0,51.0,65.6,54.7,34.8,96,86,52,29.80,29.60,22,3,22,0.83
2012-3-4,53.0,47.9,40.5,38.6,28.6,23.5,67,48,32,30.16,29.75,19,5,26,0.02
2012-3-5,58.9,49.2,33.9,35.4,27.8,20.3,82,46,24,30.57,30.06,15,6,16,0.00
2012-3-6,61.1,45.6,30.5,37.6,28.4,24.7,84,55,28,30.73,30.57,6,1,10,0.00
2012-3-7,67.5,54.1,42.7,53.3,46.8,36.0,90,77,58,30.65,30.44,5,1,7,0.00
2012-3-8,54.6,47.8,43.3,53.8,46.7,42.5,97,96,94,30.44,30.40,0,0,4,0.00
2012-3-17,77.6,70.1,58.5,63.6,61.1,57.7,97,75,57,30.25,30.12,9,2,9,0.03
2012-3-18,81.7,69.9,60.5,65.5,61.5,59.1,96,76,48,30.27,30.13,5,1,7,0.01
2012-3-19,67.2,62.3,57.5,62.5,59.3,56.4,96,90,84,30.21,30.13,3,0,5,0.00
2012-3-20,82.5,71.8,67.7,59.6,59.3,58.4,75,66,44,30.16,30.05,4,1,13,0.00
2012-3-21,79.2,67.8,55.9,65.0,60.9,54.8,97,80,57,30.26,30.12,10,1,10,0.00
2012-3-22,78.8,69.8,63.4,66.8,64.5,62.2,96,84,61,30.24,30.09,4,0,6,0.00
2012-3-23,78.7,69.1,62.9,67.8,64.4,61.5,96,86,66,30.12,29.95,6,1,12,0.00
2012-3-24,77.8,69.3,61.6,64.5,57.9,45.3,95,70,39,29.93,29.72,11,4,14,0.00
2012-3-25,73.1,60.9,50.4,51.4,48.8,45.5,91,67,43,29.90,29.75,12,3,17,0.00
2012-3-26,82.5,64.8,51.8,56.1,49.3,41.3,87,61,24,30.04,29.88,5,1,7,0.00
2012-3-27,74.9,62.4,53.9,52.1,47.7,44.2,80,61,37,30.31,30.04,4,0,7,0.00
2012-3-28,79.6,66.2,56.1,61.3,56.6,53.1,97,74,43,30.25,29.99,13,3,16,0.00
2012-3-29,81.7,70.0,58.9,62.0,57.2,53.1,81,65,47,30.00,29.88,7,1,14,0.00
2012-3-30,81.3,68.9,55.0,63.0,57.4,50.4,96,70,35,29.99,29.85,10,2,15,0.16
2012-3-31,74.1,67.0,63.6,65.3,63.8,62.3,97,90,72,29.87,29.76,6,2,7,0.63
2012-4-1,82.2,70.4,57.3,62.4,59.4,54.8,97,72,40,29.88,29.75,9,1,11,0.00
2012-4-2,86.9,74.2,64.4,66.5,63.0,60.5,90,70,42,29.86,29.72,14,2,14,0.06
2012-4-3,82.3,70.0,59.6,70.7,63.9,58.8,97,82,64,29.96,29.82,3,0,5,0.13
2012-4-4,82.2,70.2,58.0,69.9,63.6,56.9,97,81,56,29.90,29.66,8,1,10,0.01
2012-4-5,78.8,70.5,63.6,66.6,62.6,56.1,93,78,46,29.70,29.62,4,1,7,0.00
2012-4-10,79.0,71.5,56.7,50.7,46.6,41.1,65,43,26,30.09,29.91,9,3,13,0.00
2012-4-11,67.4,56.7,46.4,44.0,34.1,25.6,72,46,21,30.15,29.94,12,2,16,0.00
2012-4-12,64.5,50.2,37.1,41.7,33.5,28.9,87,55,30,30.32,30.17,4,0,6,0.00
2012-4-13,72.5,54.4,35.8,45.6,40.2,34.5,96,65,32,30.29,30.20,4,0,8,0.00
2012-4-14,77.0,60.5,42.3,47.7,44.2,41.0,96,61,28,30.37,30.20,6,1,6,0.00
2012-4-15,78.9,67.2,56.8,64.0,59.7,49.6,96,78,57,30.23,30.13,9,3,13,0.00
2012-4-16,80.8,68.8,56.2,65.2,60.7,54.2,95,77,53,30.22,30.13,6,1,10,0.00
2012-4-17,83.6,71.9,59.9,65.7,62.7,58.5,96,75,49,30.18,30.00,5,0,5,0.00
2012-4-18,70.1,61.0,55.5,61.8,58.8,54.7,97,92,75,30.11,29.98,4,1,7,0.16
2012-4-19,57.7,55.4,54.8,56.3,54.5,54.0,97,97,95,30.09,30.04,3,1,5,0.01
2012-4-27,82.4,75.5,66.1,67.7,64.5,58.2,87,69,58,30.02,29.90,9,3,13,0.00
2012-4-28,87.5,72.9,60.6,68.5,62.7,56.3,97,75,37,30.08,29.99,9,1,9,0.00
2012-4-29,89.0,73.3,63.3,67.5,62.8,58.6,96,74,36,30.15,30.02,5,1,6,0.00
2012-4-30,91.4,76.5,61.4,66.3,63.0,59.4,93,66,38,30.15,30.02,5,1,9,0.00
2012-5-1,87.5,75.4,65.5,70.0,65.9,61.5,94,74,50,30.15,30.00,12,2,13,0.00
2012-5-2,90.1,75.6,61.9,67.7,63.4,59.2,96,69,37,30.15,30.01,7,1,10,0.00
2012-5-3,87.7,76.2,65.2,68.4,64.2,60.9,95,69,41,30.13,30.01,6,0,9,0.00
2012-5-4,85.5,75.7,68.6,68.0,65.9,62.4,91,73,51,30.09,29.93,7,2,9,0.00
2012-5-5,91.2,79.5,63.9,70.6,65.5,62.7,96,66,41,29.94,29.78,8,2,15,0.00
2012-5-6,85.5,74.3,63.7,65.9,64.1,62.0,94,72,48,29.93,29.84,6,1,11,0.00
2012-5-7,79.5,70.4,64.3,71.6,66.0,62.2,94,86,70,29.98,29.87,6,1,7,0.18
2012-5-8,82.9,71.7,65.9,69.2,66.4,64.2,96,85,57,29.94,29.78,4,0,6,0.00
2012-5-9,77.9,67.4,57.3,70.2,64.8,55.0,97,92,69,29.83,29.70,6,1,14,0.34
2012-5-10,76.6,63.5,51.2,57.4,50.5,45.7,96,68,36,29.95,29.81,9,1,10,0.00
2012-5-11,80.1,65.7,50.8,58.8,52.2,48.6,92,65,39,30.17,29.97,6,1,11,0.00
2012-5-12,79.2,68.8,58.9,64.8,59.4,56.1,95,74,51,30.30,30.17,7,1,7,0.00
2012-5-13,68.4,65.6,62.1,66.0,62.6,56.4,97,90,70,30.21,30.03,6,1,11,0.43
2012-5-14,81.5,72.1,66.5,68.9,66.6,65.3,97,84,58,30.00,29.84,8,2,10,0.20
2012-5-15,84.2,73.2,63.1,69.6,64.3,61.2,97,76,46,29.95,29.86,13,2,14,0.00
2012-5-16,83.6,71.4,61.3,66.3,63.7,59.9,96,79,52,29.95,29.84,4,1,5,0.19
2012-5-17,80.9,67.1,60.1,66.7,62.5,59.0,96,87,58,30.00,29.87,4,0,6,0.07
2012-5-18,76.6,66.7,57.7,66.1,61.3,56.9,97,84,64,30.07,29.96,9,1,12,0.00
2012-5-19,81.4,68.4,59.0,58.9,55.0,49.0,95,66,33,30.15,30.01,7,1,9,0.00
2012-5-20,82.3,68.4,54.2,62.4,54.2,51.3,92,64,35,30.12,30.00,9,2,14,0.00
2012-5-21,86.6,71.9,54.2,63.5,58.6,52.8,95,67,39,30.04,29.86,5,1,7,0.01
2012-5-22,83.5,69.0,60.4,66.2,62.4,59.0,96,82,47,29.87,29.81,7,2,13,0.00
2012-5-23,85.4,77.6,60.8,64.9,60.9,59.0,94,59,42,29.86,29.79,7,1,8,0.00
2012-5-24,90.2,75.0,58.1,68.4,62.4,57.0,97,69,40,29.94,29.85,6,1,6,0.00
2012-5-25,92.8,78.2,63.8,70.7,64.5,62.0,94,67,36,30.07,29.94,4,1,5,0.00
2012-5-26,93.9,79.6,64.5,69.4,65.3,62.7,94,66,38,30.09,29.97,6,2,13,0.00
2012-5-27,89.5,79.0,66.4,67.9,65.9,63.4,93,67,42,30.03,29.93,11,2,13,0.00
2012-5-28,85.4,74.8,69.4,73.2,69.6,66.5,96,85,58,29.96,29.87,7,1,11,0.15
2012-5-29,79.4,72.9,68.2,72.7,70.0,66.4,97,91,78,29.89,29.76,6,1,8,0.39
2012-5-30,90.5,75.9,66.7,70.8,66.0,60.2,97,75,37,29.80,29.72,5,1,8,0.00
2012-5-31,91.8,75.9,60.5,69.9,63.2,58.2,97,70,34,29.86,29.71,13,2,13,1.50
2012-6-1,83.2,72.3,63.5,70.3,66.4,62.6,97,83,60,29.81,29.71,10,4,15,0.03
2012-6-2,79.2,67.2,55.6,62.2,52.4,46.2,94,64,32,29.95,29.80,11,2,15,0.00
2012-6-3,84.1,70.5,52.3,66.4,58.9,50.3,95,69,45,30.00,29.83,10,2,18,0.00
2012-6-4,82.9,73.7,66.5,69.5,67.1,64.7,94,81,60,29.83,29.69,12,2,14,0.10
2012-6-5,71.5,68.3,62.2,66.4,64.0,60.8,95,86,75,29.84,29.65,3,1,9,0.01
2012-6-6,75.1,67.1,61.0,65.9,63.1,59.9,96,87,73,29.97,29.80,4,0,12,0.00
2012-6-7,82.0,68.0,57.4,64.9,60.4,56.3,97,80,47,30.05,29.96,4,0,9,0.00
2012-6-8,85.3,72.2,58.4,64.4,61.1,57.3,96,72,43,30.05,29.96,5,0,9,0.00
2012-6-9,85.9,74.1,59.9,65.7,60.8,58.1,96,67,39,30.08,29.97,5,1,11,0.00
2012-6-10,79.7,72.6,68.6,75.0,68.8,62.7,96,88,69,30.08,29.97,7,1,7,0.57
2012-6-11,77.2,72.1,68.0,73.1,69.8,66.8,97,93,84,30.08,29.98,10,2,13,0.37
2012-6-12,88.0,76.9,68.7,74.6,71.2,67.3,97,84,60,29.97,29.81,23,3,31,0.57
2012-6-13,88.4,76.6,65.0,75.2,70.0,64.1,98,82,60,29.91,29.84,2,0,5,0.01
2012-6-14,84.6,74.9,67.3,70.5,68.0,65.8,96,80,58,30.09,29.91,3,0,7,0.00
2012-6-15,82.4,73.6,64.8,66.8,64.4,61.6,94,75,54,30.17,30.03,7,1,8,0.00
2012-6-16,81.6,70.0,58.1,64.9,61.1,56.7,96,76,47,30.24,30.10,4,0,5,0.00
2012-6-17,84.7,70.8,55.8,64.9,60.7,54.7,96,74,47,30.17,29.99,4,0,5,0.00
2012-6-18,86.7,74.0,62.4,68.7,63.3,60.0,94,72,42,30.09,29.99,7,1,9,0.00
2012-6-19,88.1,75.7,60.7,69.1,63.4,59.3,95,69,43,30.17,30.08,5,0,5,0.00
2012-6-20,88.4,81.5,72.3,69.7,68.2,66.2,84,65,53,30.15,30.03,4,1,5,0.00
2012-6-21,86.2,75.8,65.1,72.9,68.4,63.6,95,79,59,30.06,29.90,1,0,5,0.00
2012-6-22,93.8,78.6,63.4,70.8,65.6,61.2,96,69,35,29.93,29.79,9,1,10,0.00
2012-6-23,93.4,81.0,66.1,73.6,67.6,64.0,93,66,43,29.90,29.81,7,2,7,0.00
2012-6-24,91.3,81.4,71.4,74.7,71.0,67.0,94,73,45,29.91,29.81,6,1,9,0.00
2012-6-25,90.3,79.6,68.6,72.9,70.4,67.1,96,75,53,29.81,29.64,2,0,7,0.00
2012-6-26,82.5,74.3,70.8,70.3,69.0,65.8,95,85,57,29.74,29.63,4,1,12,0.00
2012-6-28,100.2,88.8,80.0,65.3,61.1,56.8,60,42,24,29.91,29.87,5,1,15,0.00
2012-6-29,106.9,91.7,76.4,68.9,63.2,54.2,74,44,18,29.86,29.70,2,0,4,0.00
2012-6-30,107.9,89.6,71.6,72.2,65.2,53.6,79,49,17,29.81,29.71,5,1,6,0.00
2012-7-1,107.8,84.1,72.7,75.5,68.8,63.4,86,64,25,29.99,29.77,18,2,19,0.15
2012-7-2,94.8,80.8,69.8,72.4,69.7,66.7,96,73,40,30.09,29.90,13,3,13,0.15
2012-7-3,95.2,79.6,71.2,75.2,71.1,68.0,95,77,45,29.99,29.89,5,0,5,0.06
2012-7-4,95.9,81.9,68.3,73.3,69.7,66.8,96,70,42,30.01,29.86,9,2,11,0.00
2012-7-5,97.1,85.5,73.9,71.9,69.7,66.9,86,62,38,29.93,29.79,8,1,9,0.00
2012-7-6,93.4,78.9,70.3,72.7,70.8,68.8,95,78,49,29.92,29.83,5,1,9,0.00
2012-7-8,95.6,90.7,84.1,70.4,69.2,68.6,61,50,42,29.90,29.82,6,2,18,0.00
2012-7-9,97.5,85.0,76.0,73.8,71.2,69.1,85,65,40,29.89,29.77,7,2,11,0.02
2012-7-10,94.9,80.4,70.6,74.5,71.4,68.9,96,77,43,30.00,29.81,13,2,13,0.35
2012-7-11,87.3,77.6,69.5,75.5,71.4,68.3,97,82,61,30.05,29.93,4,0,7,0.17
2012-7-12,85.1,75.4,69.4,75.9,71.7,68.1,96,89,72,30.08,29.99,5,0,6,0.08
2012-7-13,85.6,76.1,71.9,76.6,73.6,70.7,97,92,70,30.10,30.02,4,0,7,0.70
2012-7-14,90.0,78.1,70.8,76.8,73.6,69.9,97,87,61,30.16,30.02,4,0,6,0.01
2012-7-15,91.0,80.0,70.1,75.0,71.7,68.9,97,78,51,30.16,30.01,4,0,6,0.00
2012-7-16,88.8,77.8,68.2,75.8,71.8,66.7,96,83,60,30.05,29.90,7,1,11,0.41
2012-7-17,90.0,76.1,68.1,78.4,71.0,66.6,96,85,61,29.99,29.86,6,1,6,0.01
2012-7-18,90.0,78.4,70.1,78.5,72.5,68.6,95,83,64,29.99,29.86,5,1,7,0.00
2012-7-19,90.9,78.6,69.9,75.7,71.8,68.7,96,82,58,30.04,29.90,5,2,7,0.00
2012-7-20,88.1,80.4,73.4,75.8,73.7,71.5,94,81,62,29.96,29.88,7,2,14,0.00
2012-7-21,84.1,77.3,72.9,77.1,73.9,71.2,96,90,76,30.06,29.92,7,1,12,0.11
2012-7-22,93.0,80.8,70.6,77.9,73.0,67.2,96,79,53,30.14,30.04,4,0,9,0.09
2012-7-23,92.5,81.3,72.5,79.2,74.2,71.0,95,80,55,30.15,30.00,6,1,13,0.04
2012-7-24,94.7,84.8,75.0,76.6,73.3,71.3,93,71,47,30.01,29.85,6,2,11,0.00
2012-7-25,95.8,84.2,75.3,76.3,73.6,70.8,93,73,46,29.92,29.83,4,0,7,0.00
2012-7-26,97.9,87.1,75.5,76.9,73.7,70.2,94,67,41,29.88,29.78,9,2,13,0.00
2012-7-27,93.2,83.9,76.3,77.3,73.3,70.0,84,71,51,29.91,29.82,10,2,15,0.00
2012-7-28,96.7,84.9,73.9,74.8,70.8,67.2,90,66,39,29.96,29.85,5,1,12,0.00
2012-7-29,94.1,83.6,74.0,73.9,69.6,62.9,90,66,37,29.92,29.83,6,2,11,0.00
2012-7-30,91.4,80.5,70.1,75.1,71.5,68.9,96,76,50,29.92,29.83,9,2,10,0.00
2012-7-31,81.5,73.9,70.4,75.5,71.9,68.9,97,93,82,29.92,29.84,9,1,9,1.44
2012-8-1,92.9,79.6,71.0,78.2,73.0,70.1,98,82,48,29.90,29.79,0,0,3,0.00
2012-8-2,96.7,82.3,73.3,75.8,72.8,70.5,95,75,43,29.89,29.75,16,2,21,0.16
2012-8-3,91.6,78.0,69.7,74.2,71.4,68.5,96,82,53,30.00,29.83,6,1,9,0.53
2012-8-4,86.7,75.9,70.6,76.9,72.6,69.4,96,90,70,30.13,29.96,6,1,9,0.18
2012-8-5,85.9,76.7,70.6,76.9,72.8,69.4,97,88,69,30.19,30.06,5,1,7,0.23
2012-8-6,83.0,76.4,73.0,77.8,73.8,71.5,96,92,80,30.10,29.98,2,0,5,0.26
2012-8-7,85.1,77.9,72.6,77.5,74.0,70.8,96,88,74,30.01,29.89,4,1,7,0.01
2012-8-8,90.1,79.0,71.8,76.8,73.6,70.3,96,85,62,29.98,29.88,4,0,7,0.00
2012-8-9,88.7,77.5,71.4,77.1,73.1,70.2,96,87,64,29.93,29.77,6,1,11,0.37
2012-8-10,81.6,76.3,71.7,73.6,72.3,70.5,96,88,74,29.86,29.78,8,2,13,0.01
2012-8-11,80.8,75.5,72.5,76.3,73.2,70.7,96,93,85,29.90,29.82,4,1,7,0.61
2012-8-12,87.9,74.8,64.7,72.8,64.0,57.7,96,73,37,29.99,29.89,4,0,5,0.01
2012-8-13,87.1,73.2,58.8,68.8,62.9,57.7,96,74,43,30.04,29.90,5,0,7,0.00
2012-8-14,86.6,74.5,66.1,73.9,69.2,64.3,96,85,59,29.99,29.84,7,1,12,0.11
2012-8-15,85.4,77.3,70.9,74.9,71.0,66.9,96,82,55,29.94,29.86,4,1,11,0.03
2012-8-16,90.2,77.9,69.3,74.3,70.7,67.5,95,81,51,30.00,29.89,3,0,9,0.00
2012-8-17,89.8,78.9,70.6,74.5,71.3,69.1,95,79,52,29.95,29.79,10,1,13,0.00
2012-8-18,86.6,76.2,66.7,73.8,69.8,65.2,95,82,60,29.88,29.78,5,1,10,0.00
2012-8-19,81.5,75.2,69.6,72.4,70.8,68.1,96,87,73,29.87,29.78,7,1,8,0.30
2012-8-20,80.5,73.8,69.8,73.4,69.7,68.4,96,88,68,29.92,29.81,5,0,6,0.03
2012-8-21,84.8,72.8,67.1,71.9,68.2,64.9,97,87,62,30.01,29.91,3,0,9,0.14
2012-8-22,84.0,73.8,66.2,73.0,69.2,65.0,97,87,64,30.07,29.98,4,0,10,0.01
2012-8-23,83.4,74.4,67.2,73.2,69.6,66.0,96,86,65,30.11,30.01,5,0,6,0.00
2012-8-24,86.7,74.8,65.5,72.1,66.8,64.3,96,79,50,30.11,30.00,8,0,9,0.00
2012-8-25,86.9,73.4,62.3,73.5,65.9,61.2,96,80,48,30.13,30.03,5,0,6,0.00
2012-8-26,89.3,74.6,63.1,70.2,66.4,61.9,96,78,51,30.15,30.02,2,0,7,0.00
2012-8-27,89.1,76.0,64.2,74.2,69.3,62.9,96,82,60,30.09,29.93,9,1,9,0.00
2012-8-28,79.1,75.5,73.2,77.1,74.0,71.7,96,95,92,29.97,29.89,0,0,2,0.28
2012-8-29,86.8,77.5,72.4,77.2,73.5,70.9,97,88,70,29.97,29.86,5,0,10,0.30
2012-8-30,82.5,75.7,71.0,76.0,72.9,69.8,96,91,78,30.12,29.93,0,0,4,0.02
2012-8-31,89.3,79.3,71.8,77.6,74.1,70.6,97,85,62,30.20,30.08,3,0,5,0.00
2012-9-1,91.7,80.8,71.2,77.4,73.3,70.0,97,80,54,30.13,29.99,9,1,11,0.00
2012-9-2,92.1,79.6,72.5,77.2,73.2,70.7,95,82,51,30.01,29.90,10,2,11,0.07
2012-9-3,89.9,77.6,71.9,77.1,73.0,70.4,96,87,61,29.94,29.84,12,2,18,0.04
2012-9-4,85.7,75.9,71.0,76.9,72.6,69.8,96,90,67,29.92,29.83,5,1,11,0.20
2012-9-5,85.5,77.5,72.0,74.3,72.1,70.5,95,84,65,29.93,29.83,6,1,10,0.00
2012-9-6,87.4,77.9,72.2,75.0,72.7,70.4,95,85,64,29.95,29.83,6,2,10,0.00
2012-9-7,89.5,78.6,71.2,76.0,72.7,69.9,96,83,56,29.93,29.79,3,0,5,0.00
2012-9-8,89.8,76.3,72.4,75.0,72.0,70.6,96,88,58,29.80,29.66,14,2,14,0.47
2012-9-9,80.9,71.1,62.6,69.4,62.6,58.2,96,77,46,29.98,29.75,6,1,6,0.00
2012-9-10,82.8,69.9,57.2,61.5,58.5,56.1,96,72,41,30.11,29.99,6,0,7,0.00
2012-9-17,85.6,79.8,73.0,70.8,69.8,68.6,92,73,57,29.91,29.80,13,3,16,0.01
2012-9-18,73.2,71.6,67.2,71.6,69.9,65.4,95,94,90,29.83,29.70,11,4,13,0.57
2012-9-19,79.7,72.9,63.0,65.3,63.8,61.0,94,75,59,30.05,29.85,4,1,6,0.00
2012-9-20,79.8,69.2,61.4,67.2,63.4,60.0,95,83,58,30.13,30.02,5,1,10,0.00
2012-9-21,84.0,70.4,59.7,68.1,63.6,58.6,97,81,53,30.08,29.96,4,0,4,0.00
2012-9-22,86.6,75.6,66.4,68.3,65.4,64.1,95,73,48,30.03,29.90,6,2,12,0.00
2012-9-23,81.8,69.4,56.0,64.0,52.8,46.5,92,60,29,30.12,29.98,12,3,15,0.00
2012-9-24,77.7,63.3,48.1,57.4,49.9,41.9,86,64,43,30.20,30.11,6,1,11,0.00
2012-9-25,81.2,65.8,50.5,61.4,56.4,49.4,96,75,44,30.23,30.15,4,0,4,0.00
2012-9-26,84.9,67.6,51.9,62.3,56.5,50.5,96,72,38,30.24,30.12,4,0,5,0.00
2012-9-27,70.3,62.6,58.7,69.1,61.0,56.4,97,94,89,30.22,30.12,0,0,1,0.00
2012-9-28,85.2,77.2,61.1,70.7,67.1,59.7,95,73,51,30.11,29.95,4,0,9,0.00
2012-9-29,82.3,72.8,65.6,69.6,66.7,64.1,96,83,59,29.98,29.82,4,1,7,0.00
2012-9-30,69.0,67.2,64.7,67.5,65.6,63.3,96,95,92,29.88,29.80,0,0,4,0.32
2012-10-1,79.3,72.8,68.2,73.9,70.4,67.0,97,92,80,29.79,29.62,10,1,15,0.04
2012-10-18,76.0,70.9,62.9,64.3,62.8,60.8,93,77,62,29.84,29.76,12,2,12,0.00
2012-10-19,75.0,63.3,49.7,62.1,42.8,30.6,94,55,20,29.85,29.75,15,2,15,0.00
2012-10-20,72.1,59.1,47.9,47.5,44.4,37.8,84,60,40,29.98,29.82,11,2,14,0.00
2012-10-21,74.2,57.9,45.9,48.8,46.7,44.2,94,70,37,30.18,29.98,3,0,7,0.00
2012-10-22,78.3,55.6,42.9,53.4,47.0,41.6,97,78,37,30.28,30.16,1,0,3,0.00
2012-11-9,64.6,64.6,64.6,37.1,37.1,37.1,36,36,36,30.31,30.31,1,1,10,0.00
2012-11-12,71.6,66.0,62.3,63.7,62.6,60.8,95,89,76,30.21,30.18,4,1,4,0.10
2012-11-13,62.3,53.9,44.4,56.6,49.9,40.8,95,87,75,30.39,30.18,7,2,10,0.00
2012-11-14,50.8,46.1,42.2,42.2,38.7,36.4,94,76,58,30.48,30.36,5,1,7,0.22
2012-11-15,51.4,44.0,40.6,46.7,42.1,39.5,96,93,82,30.39,30.29,6,1,6,0.31
2012-11-16,56.5,40.0,34.7,42.8,37.3,33.7,97,91,57,30.42,30.34,5,1,7,0.00
2012-11-23,71.4,64.6,52.9,51.6,46.3,37.2,73,53,38,30.22,30.01,11,4,15,0.00
2012-11-24,57.8,48.9,39.5,34.3,29.9,21.7,76,51,25,30.14,30.03,13,3,15,0.00
2012-11-30,62.8,53.2,50.6,50.0,48.6,47.8,91,85,63,30.39,30.36,0,0,4,0.00
2012-12-1,68.6,55.4,43.8,55.8,49.9,42.7,96,83,55,30.44,30.33,3,0,3,0.00
2012-12-2,71.4,58.2,49.0,58.8,52.9,47.8,96,84,58,30.43,30.27,5,0,9,0.00
2012-12-3,73.3,58.3,44.9,60.8,52.8,43.8,98,84,57,30.38,30.25,5,1,7,0.00
2012-12-4,73.3,62.2,56.1,62.7,56.9,51.7,96,84,56,30.36,30.22,9,2,9,0.00
2012-12-5,71.9,62.9,57.1,60.4,56.4,54.2,93,80,61,30.24,30.10,6,1,7,0.00
2012-12-6,61.1,56.7,49.5,57.5,48.1,42.6,91,73,61,30.23,30.11,5,1,9,0.00
2012-12-7,65.2,52.7,47.0,52.3,46.1,39.9,95,79,63,30.19,30.01,6,1,9,0.00
2012-12-8,70.7,56.9,46.0,57.9,52.4,44.9,96,86,64,30.12,30.00,4,0,8,0.00
2012-12-9,68.5,61.0,56.1,61.6,58.4,54.4,96,91,77,30.12,29.99,7,2,10,0.00
2012-12-10,70.1,61.7,55.7,61.7,59.0,54.6,97,91,73,29.99,29.73,13,4,20,0.32
2012-12-11,60.5,49.7,42.3,58.8,44.2,38.7,96,82,62,30.19,29.77,4,1,8,0.01
2012-12-12,45.5,43.7,41.4,42.4,40.5,38.2,95,88,78,30.34,30.19,6,1,7,0.13
2012-12-13,53.3,43.9,36.1,42.2,39.5,34.8,95,85,66,30.46,30.31,7,2,10,0.00
2012-12-14,59.3,42.1,30.7,41.6,36.1,29.7,96,81,48,30.51,30.30,2,0,4,0.01
2012-12-15,58.5,45.9,34.8,45.0,40.5,33.5,95,83,58,30.34,30.12,2,0,4,0.00
2012-12-16,60.9,54.6,47.5,58.8,53.2,45.0,97,95,88,30.12,29.92,13,2,13,0.12
2012-12-17,58.5,56.1,53.1,57.6,55.2,52.3,98,97,94,29.95,29.72,9,2,10,0.10
2012-12-18,61.0,53.6,42.3,55.3,43.5,33.9,97,72,36,30.06,29.75,6,2,13,0.07
2012-12-19,69.1,49.3,33.7,47.8,40.8,31.9,93,76,44,30.16,30.06,6,0,10,0.05
2012-12-20,63.0,49.7,34.0,60.5,46.8,32.7,96,90,70,30.11,29.66,10,3,15,0.26
2012-12-22,53.7,44.7,39.5,20.5,19.0,16.9,46,36,26,30.28,30.23,6,3,13,0.00
2012-12-23,58.6,47.0,36.4,35.0,27.8,20.1,60,47,35,30.29,30.13,11,2,13,0.00
2012-12-24,53.1,48.4,43.7,52.0,43.1,34.8,96,83,62,30.13,29.91,10,3,16,0.77
2012-12-26,57.4,44.8,38.1,52.3,37.0,31.5,83,74,67,29.96,29.56,10,5,23,0.64
2012-12-27,50.5,40.0,31.1,35.4,32.8,29.2,95,76,56,30.16,29.95,9,2,17,0.00
2012-12-28,50.9,39.8,29.4,41.0,35.2,28.1,96,85,60,30.24,30.01,5,0,5,0.00
2012-12-29,48.0,41.0,34.8,43.7,38.1,30.2,97,89,78,30.24,29.81,13,4,20,0.44
2012-12-30,51.7,37.4,28.1,29.6,27.3,25.3,92,70,36,30.54,30.24,5,1,7,0.00
2012-12-31,57.7,43.7,26.4,44.6,33.9,24.6,94,72,33,30.54,30.25,11,2,13,0.00
2013-1-1,57.1,52.2,47.0,52.5,49.0,43.6,97,89,79,30.16,29.94,5,1,6,0.08